Location: *
(31.2983°S, 151.4094°E)
Time: 08:46:20
(UTC+00:00)

IRS-1C Rocket - Pass Details

Date: 25 August 2019
Orbit: 800 x 806 km, 99.0° (Epoch: 19 September)

Event Time Altitude Azimuth Distance (km) Brightness Sun altitude
Rises 19:30:13 0° 2° (N) 3,297 7.4 -11.1°
Reaches altitude 10° 19:32:35 10° 357° (N) 2,376 6.6 -10.6°
Maximum altitude 19:37:42 52° 281° (W) 1,004 4.3 -9.5°
Drops below altitude 10° 19:42:53 10° 205° (SSW) 2,409 6.3 -8.4°
Sets 19:45:19 0° 199° (SSW) 3,348 7.0 -7.9°
